Regional Weather Roundup
Issued by NWS

Home | Current Version | Previous Version | Text Only | Print | Product List | Glossary On
Versions: 1 2 3 4 5 6 7 8 9 10 11 12 13 14 15 16 17 18 19 20 21 22 23 24 25 26 27 28 29 30 31 32 33 34 35 36 37 38 39 40 41 42 43 44 45 46 47 48 49 50
000
ASUS44 KJAN 020810
RWRMS

MISSISSIPPI HOURLY WEATHER ROUNDUP
NATIONAL WEATHER SERVICE JACKSON MS
300 AM CDT THU OCT 02 2014

NOTE: "FAIR: INDICATES FEW OR NO CLOUDS BELOW 12,000 FEET WITH NO
SIGNIFICANT WEATHER AND/OR OBSTRUCTIONS TO VISIBILITY.

MSZ001>002-007>008-010>013-018>021-025>028-034>036-020900-
NORTHWEST MISSISSIPPI

CITY           SKY/WX    TMP DP  RH WIND       PRES   REMARKS
CLARKSDALE     CLOUDY    75  68  78 S8        29.92R
CLEVELAND      FAIR      74  70  87 S7        29.90S
GREENWOOD      CLEAR     73  67  81 S8        29.92S
GREENVILLE     PTCLDY    76  71  85 S10       29.89S
GRENADA        FAIR      68  63  83 CALM      29.93S
OLIVE BRANCH   CLEAR     68  66  94 S6        29.92S
OXFORD         FAIR      68  61  77 SE6       29.95S
TUNICA         SUNNY     68  64  88 S7        29.91S
$$

MSZ003>006-009-014>017-022>024-029>033-037>039-020900-
NORTHEAST MISSISSIPPI

CITY           SKY/WX    TMP DP  RH WIND       PRES   REMARKS
COLUMBUS AFB   CLEAR     66  62  85 SE6       29.96S
CORINTH          N/A     64  61  88 CALM      29.95S
GOLDN TRIANGLE CLEAR     70  61  73 S8        29.96S
STARKVILLE     FAIR      64  61  88 CALM      29.96S
TUPELO         CLEAR     68  61  78 S5        29.94F
$$

MSZ040-058-020900-
CENTRAL MISSISSIPPI

CITY           SKY/WX    TMP DP  RH WIND       PRES   REMARKS
JACKSON INTL   CLOUDY    75  71  87 SE7       29.94S
JACKSON HAWKNS CLOUDY    76  71  85 S8        29.94S
MERIDIAN KEY   CLOUDY    70  67  90 S5        29.97F
MERIDIAN NAS   MOCLDY    70  67  90 S3        29.98R
RAYMOND        CLOUDY    75  70  83 SE6       29.93S
VICKSBURG      MOCLDY    76  72  87 S6        29.91S
$$

MSZ059>079-020900-
SOUTH MISSISSIPPI

CITY           SKY/WX    TMP DP  RH WIND       PRES   REMARKS
BROOKHAVEN     CLOUDY    75  73  94 SE6       29.96S
COLUMBIA       CLOUDY    75  73  94 S6        29.94S
HATTIESBURG    CLOUDY    76  73  91 SE5       29.96F
MCCOMB         LGT RAIN  76  73  91 SE6       29.94F
NATCHEZ        CLOUDY    75  72  88 SE6       29.92F
PINE BELT      CLOUDY   N/A N/A N/A S3        29.97S
$$

MSZ080>082-020900-
COASTAL MISSISSIPPI

CITY           SKY/WX    TMP DP  RH WIND       PRES   REMARKS
BILOXI         PTCLDY    79  76  90 S6        29.95S
PASCAGOULA     MOCLDY    71  70  96 CALM      29.96S
GULFPORT       PTCLDY    78  75  90 SE6       29.94F
$$


USA.gov is the U.S. government's official web portal to all federal, state and local government web resources and services.